Regional Weather Roundup
Issued by NWS

Home | Current Version | Previous Version | Text Only | Print | Product List | Glossary On
Versions: 1 2 3 4 5 6 7 8 9 10 11 12 13 14 15 16 17 18 19 20 21 22 23 24 25 26 27 28 29 30 31 32 33 34 35 36 37 38 39 40 41 42 43 44 45 46 47 48 49 50
099
ASUS44 KLIX 251910
RWRLA
LOUISIANA WEATHER ROUNDUP
NATIONAL WEATHER SERVICE NEW ORLEANS LA
100 PM CST TUE NOV 25 2014

NOTE: "FAIR" INDICATES FEW OR NO CLOUDS BELOW 12,000 FEET WITH NO
      SIGNIFICANT WEATHER AND/OR OBSTRUCTIONS TO VISIBILITY.
      SKY/WX - SKY CONDITION AND SIGNIFICANT WEATHER.
      TMP - AIR TEMPERATURE.    DP   - DEWPOINT TEMPERATURE.
      RH  - RELATIVE HUMIDITY.  PRES - PRESSURE.
      HX  - HEAT INDEX.         WCI  - WIND CHILL INDEX.

*  THESE STATIONS ARE NOT NWS OR FAA STATIONS AND ARE NOT UNDER
   NWS QUALITY CONTROL.

LAZ040-048-061>063-065-066-069-252000-
SOUTHEAST LOUISIANA

CITY           SKY/WX    TMP DP  RH WIND       PRES   REMARKS
N.O. AUDUBON     N/A     56  38  50 MISG        N/A
N.O. INTL ARPT CLOUDY    56  31  38 N14       30.13F
N.O. LAKEFRONT CLOUDY    57  39  51 NW17      30.14F
N.O. DOWNTOWN* CLOUDY    55  34  44 N6        30.14F
SLIDELL        CLOUDY    55  36  48 N6        30.11F
BATON ROUGE    CLOUDY    56  26  31 NW7       30.17F
BOOTHVILLE     PTSUNNY   57  38  48 N12G25    30.10F
BELLE CHASSE   CLOUDY    57  32  38 N8        30.10F
BOGALUSA*        N/A     56  35  44 N7        30.15F
NEW ROADS*     CLOUDY    54  28  36 NW6       30.18F
GONZALES*      MOCLDY    56  30  37 N9        30.17F
HAMMOND*       CLOUDY    55  30  38 NW7       30.17F
HOUMA*         NOT AVBL
PORT FOURCHON* MOCLDY    57  37  47 N17G24    30.14F

$$

LAZ041-044-053-054-252000-
SOUTHWEST LOUISIANA

CITY           SKY/WX    TMP DP  RH WIND       PRES   REMARKS
LAKE CHARLES   CLOUDY    55  34  45 N8        30.22F
LAFAYETTE      CLOUDY    55  31  39 N10       30.18F
PATTERSON      CLOUDY    54  36  50 N10       30.18F
SALT POINT       N/A     58  36  43 VRB5      30.16F
NEW IBERIA     CLOUDY    56  31  38 N9        30.19F
CHENAULT AIRPK CLOUDY    54  36  50 NW6       30.23

$$

LAZ027-028-252000-
CENTRAL LOUISIANA

CITY           SKY/WX    TMP DP  RH WIND       PRES   REMARKS
FORT POLK      CLOUDY    56  26  31 N12       30.22F
ALEXANDRIA INT CLOUDY    52  32  46 N7        30.21F
ALEXANDRIA     CLOUDY    51  35  54 VRB5      30.22F

$$

LAZ001-002-252000-
NORTHWEST LOUISIANA

CITY           SKY/WX    TMP DP  RH WIND       PRES   REMARKS
SHREVEPORT     PTSUNNY   59  23  25 N7        30.22F
BARKSDALE AFB  MOSUNNY   57  24  27 VRB7      30.23F
DTN SHREVEPORT MOSUNNY   57  22  25 N3        30.23F

$$

LAZ014-016-252000-
NORTHEAST LOUISIANA

CITY           SKY/WX    TMP DP  RH WIND       PRES   REMARKS
MONROE         CLOUDY    52  29  41 NW7       30.24F
TALLULAH       CLOUDY    52  28  39 N9        30.22F

$$




USA.gov is the U.S. government's official web portal to all federal, state and local government web resources and services.